| time (UTC) | temp F | wind direction | speed MPH | gust MPH | rain 1hr in | rain 24hr in | rain mn in | humidity % | barometer mb |
| 20260510055547 | 67 | 0 | 0.0 | 0.0 | 0.00 | 0.00 | 0.03 | 96 | |
| 20260510053747 | 67 | 0 | 0.0 | 0.0 | 0.00 | 0.00 | 0.02 | 96 | |
| 20260510052847 | 67 | 0 | 0.0 | 0.0 | 0.00 | 0.00 | 0.02 | 96 | |
| 20260510051048 | 67 | 0 | 0.0 | 0.0 | 0.00 | 0.00 | 0.01 | 96 | |
| 20260510050148 | 67 | 0 | 0.0 | 0.0 | 0.00 | 0.00 | 0.01 | 96 | |
| 20260510045247 | 67 | 0 | 0.0 | 0.0 | 0.00 | 0.00 | 0.01 | 96 | |
| 20260510044347 | 67 | 0 | 0.0 | 0.0 | 0.00 | 0.00 | 0.01 | 96 | |
| 20260510043447 | 67 | 0 | 0.0 | 0.0 | 0.00 | 0.00 | 0.01 | 96 | |
| 20260510042547 | 67 | 0 | 0.0 | 0.0 | 0.00 | 0.00 | 0.00 | 96 | |
| 20260510041647 | 67 | 0 | 0.0 | 0.0 | 0.00 | 0.00 | 0.00 | 96 | |
| 20260510040748 | 67 | 0 | 0.0 | 0.0 | 0.00 | 0.00 | 0.00 | 96 | |
| 20260510035848 | 67 | 0 | 0.0 | 0.0 | 0.00 | 0.00 | 0.38 | 96 | |
| 20260510034947 | 67 | 0 | 0.0 | 0.0 | 0.00 | 0.00 | 0.38 | 96 | |
| 20260510034047 | 67 | 0 | 0.0 | 0.0 | 0.00 | 0.00 | 0.38 | 96 | |
| 20260510033147 | 67 | 0 | 0.0 | 0.0 | 0.00 | 0.00 | 0.38 | 96 | |
| 20260510032247 | 67 | 0 | 0.0 | 0.0 | 0.00 | 0.00 | 0.38 | 96 | |
| 20260510031348 | 67 | 0 | 0.0 | 0.0 | 0.00 | 0.00 | 0.37 | 96 | |
| 20260510030447 | 67 | 0 | 0.0 | 0.0 | 0.00 | 0.00 | 0.37 | 96 | |
| 20260510025547 | 68 | 0 | 0.0 | 0.0 | 0.00 | 0.00 | 0.37 | 96 | |
| 20260510024648 | 68 | 0 | 0.0 | 0.0 | 0.00 | 0.00 | 0.37 | 96 | |
| 20260510023748 | 68 | 0 | 0.0 | 0.0 | 0.00 | 0.00 | 0.37 | 96 | |
| 20260510022848 | 68 | 0 | 0.0 | 0.0 | 0.00 | 0.00 | 0.37 | 96 | |
| 20260510021948 | 68 | 0 | 0.0 | 0.0 | 0.00 | 0.00 | 0.37 | 96 | |
| 20260510021048 | 68 | 0 | 0.0 | 0.0 | 0.00 | 0.00 | 0.37 | 96 | |
| 20260510020148 | 68 | 0 | 0.0 | 0.0 | 0.00 | 0.00 | 0.37 | 96 | |
| 20260510015248 | 68 | 0 | 0.0 | 0.0 | 0.00 | 0.00 | 0.37 | 96 | |
| 20260510013447 | 68 | 0 | 0.0 | 0.0 | 0.00 | 0.00 | 0.37 | 96 | |
| 20260510012548 | 68 | 0 | 0.0 | 0.0 | 0.00 | 0.00 | 0.37 | 96 | |
| 20260510011648 | 68 | 0 | 0.0 | 0.0 | 0.00 | 0.00 | 0.37 | 96 | |
| 20260510010748 | 68 | 0 | 0.0 | 0.0 | 0.00 | 0.00 | 0.37 | 96 | |
| 20260510005847 | 68 | 0 | 0.0 | 0.0 | 0.00 | 0.00 | 0.37 | 96 | |
| 20260510004948 | 68 | 0 | 0.0 | 0.0 | 0.00 | 0.00 | 0.37 | 96 | |
| 20260510004047 | 68 | 0 | 0.0 | 0.0 | 0.00 | 0.00 | 0.37 | 96 | |
| 20260510003148 | 68 | 0 | 0.0 | 0.0 | 0.00 | 0.00 | 0.37 | 96 | |
| 20260510002248 | 69 | 0 | 0.0 | 0.0 | 0.00 | 0.00 | 0.37 | 96 | |
| 20260510001347 | 69 | 0 | 0.0 | 0.0 | 0.00 | 0.00 | 0.37 | 96 | |
| 20260510000448 | 69 | 0 | 0.0 | 0.0 | 0.00 | 0.00 | 0.37 | 96 | |
| 20260509235548 | 69 | 0 | 0.0 | 0.0 | 0.00 | 0.00 | 0.36 | 96 | |
| 20260509234648 | 69 | 0 | 0.0 | 0.0 | 0.00 | 0.00 | 0.35 | 96 | |
| 20260509231948 | 70 | 182 | 0.0 | 1.0 | 0.00 | 0.00 | 0.34 | 96 | |
| 20260509231048 | 70 | 0 | 0.0 | 0.0 | 0.00 | 0.00 | 0.34 | 96 | |
| 20260509230148 | 70 | 0 | 0.0 | 0.0 | 0.00 | 0.00 | 0.34 | 96 | |
| 20260509225248 | 70 | 0 | 0.0 | 0.0 | 0.00 | 0.00 | 0.34 | 96 | |
| 20260509224348 | 70 | 0 | 0.0 | 0.0 | 0.00 | 0.00 | 0.34 | 96 | |
| 20260509223448 | 70 | 0 | 0.0 | 0.0 | 0.00 | 0.00 | 0.34 | 96 | |
| 20260509221648 | 70 | 0 | 0.0 | 0.0 | 0.00 | 0.00 | 0.34 | 96 | |
| 20260509215847 | 70 | 0 | 0.0 | 0.0 | 0.00 | 0.00 | 0.34 | 96 | |
| 20260509214048 | 70 | 205 | 0.0 | 2.0 | 0.00 | 0.00 | 0.34 | 96 | |
| 20260509213148 | 70 | 199 | 0.0 | 1.0 | 0.00 | 0.00 | 0.34 | 95 | |
| 20260509210448 | 70 | 191 | 0.0 | 2.0 | 0.00 | 0.00 | 0.33 | 95 | |
| 20260509205548 | 70 | 233 | 0.0 | 4.0 | 0.00 | 0.00 | 0.32 | 95 | |
| 20260509204647 | 70 | 130 | 0.0 | 1.0 | 0.00 | 0.00 | 0.32 | 95 | |
| 20260509203748 | 70 | 0 | 0.0 | 0.0 | 0.00 | 0.00 | 0.32 | 95 | |
| 20260509202848 | 70 | 0 | 0.0 | 0.0 | 0.00 | 0.00 | 0.32 | 95 | |
| 20260509201947 | 70 | 0 | 0.0 | 0.0 | 0.00 | 0.00 | 0.32 | 95 | |
| 20260509201048 | 70 | 0 | 0.0 | 0.0 | 0.00 | 0.00 | 0.32 | 95 | |
| 20260509200148 | 70 | 130 | 0.0 | 4.0 | 0.00 | 0.00 | 0.32 | 95 | |
| 20260509194347 | 70 | 0 | 0.0 | 0.0 | 0.00 | 0.00 | 0.32 | 95 | |
| 20260509193448 | 70 | 130 | 0.0 | 1.0 | 0.00 | 0.00 | 0.29 | 95 | |
| 20260509191648 | 70 | 132 | 0.0 | 1.0 | 0.00 | 0.00 | 0.24 | 95 | |
| 20260509185848 | 71 | 133 | 1.0 | 5.0 | 0.00 | 0.00 | 0.23 | 95 | |
| 20260509184947 | 71 | 136 | 0.0 | 4.0 | 0.00 | 0.00 | 0.23 | 94 | |
| 20260509182248 | 71 | 129 | 1.0 | 7.0 | 0.00 | 0.00 | 0.23 | 93 | |
| 20260509181348 | 71 | 129 | 1.0 | 6.0 | 0.00 | 0.00 | 0.22 | 92 | |
| 20260509180448 | 72 | 129 | 2.0 | 10.0 | 0.00 | 0.00 | 0.13 | 90 | |
| 20260509175548 | 74 | 131 | 1.0 | 6.0 | 0.00 | 0.00 | 0.01 | 88 | |
| 20260509174648 | 76 | 130 | 1.0 | 16.0 | 0.00 | 0.00 | 0.00 | 87 | |
| 20260509172848 | 79 | 134 | 0.0 | 2.0 | 0.00 | 0.00 | 0.00 | 85 | |
| 20260509171948 | 79 | 141 | 0.0 | 1.0 | 0.00 | 0.00 | 0.00 | 84 | |
| 20260509171048 | 80 | 131 | 1.0 | 5.0 | 0.00 | 0.00 | 0.00 | 83 | |
| 20260509170148 | 81 | 131 | 0.0 | 5.0 | 0.00 | 0.00 | 0.00 | 82 | |
| 20260509165248 | 80 | 134 | 1.0 | 4.0 | 0.00 | 0.00 | 0.00 | 83 | |
| 20260509164348 | 81 | 137 | 0.0 | 2.0 | 0.00 | 0.00 | 0.00 | 81 | |
| 20260509163448 | 82 | 128 | 0.0 | 1.0 | 0.00 | 0.00 | 0.00 | 80 | |
| 20260509162548 | 82 | 143 | 0.0 | 4.0 | 0.00 | 0.00 | 0.00 | 81 | |
| 20260509161648 | 82 | 128 | 0.0 | 2.0 | 0.00 | 0.00 | 0.00 | 79 | |
| 20260509160748 | 82 | 228 | 1.0 | 5.0 | 0.00 | 0.00 | 0.00 | 83 | |
| 20260509155848 | 80 | 203 | 0.0 | 2.0 | 0.00 | 0.00 | 0.00 | 81 | |
| 20260509154948 | 80 | 241 | 0.0 | 4.0 | 0.00 | 0.00 | 0.00 | 82 | |
| 20260509154048 | 79 | 230 | 1.0 | 5.0 | 0.00 | 0.00 | 0.00 | 83 | |
| 20260509153148 | 78 | 156 | 0.0 | 2.0 | 0.00 | 0.00 | 0.00 | 85 | |
| 20260509152248 | 77 | 215 | 1.0 | 4.0 | 0.00 | 0.00 | 0.00 | 86 | |
| 20260509145548 | 74 | 170 | 0.0 | 1.0 | 0.00 | 0.00 | 0.00 | 94 | |
| 20260509143748 | 71 | 142 | 0.0 | 2.0 | 0.00 | 0.00 | 0.00 | 95 | |
| 20260509142848 | 71 | 142 | 0.0 | 2.0 | 0.00 | 0.00 | 0.00 | 96 | |
| 20260509141948 | 71 | 0 | 0.0 | 0.0 | 0.00 | 0.00 | 0.00 | 96 | |
| 20260509141049 | 71 | 0 | 0.0 | 0.0 | 0.00 | 0.00 | 0.00 | 96 | |
| 20260509140148 | 71 | 142 | 0.0 | 1.0 | 0.00 | 0.00 | 0.00 | 96 | |
| 20260509134348 | 71 | 0 | 0.0 | 0.0 | 0.00 | 0.00 | 0.00 | 96 | |
| 20260509133448 | 71 | 0 | 0.0 | 0.0 | 0.00 | 0.00 | 0.00 | 96 | |
| 20260509132548 | 70 | 0 | 0.0 | 0.0 | 0.00 | 0.00 | 0.00 | 96 | |
| 20260509131648 | 70 | 138 | 0.0 | 1.0 | 0.00 | 0.00 | 0.00 | 96 | |
| 20260509130748 | 70 | 0 | 0.0 | 0.0 | 0.00 | 0.00 | 0.00 | 96 | |
| 20260509124948 | 70 | 0 | 0.0 | 0.0 | 0.00 | 0.00 | 0.00 | 96 | |
| 20260509124048 | 69 | 0 | 0.0 | 0.0 | 0.00 | 0.00 | 0.00 | 96 | |
| 20260509123148 | 69 | 0 | 0.0 | 0.0 | 0.00 | 0.00 | 0.00 | 96 | |
| 20260509122248 | 68 | 0 | 0.0 | 0.0 | 0.00 | 0.00 | 0.00 | 96 | |
| 20260509121348 | 68 | 0 | 0.0 | 0.0 | 0.00 | 0.00 | 0.00 | 96 | |
| 20260509120448 | 68 | 0 | 0.0 | 0.0 | 0.00 | 0.00 | 0.00 | 96 | |
| 20260509115548 | 67 | 0 | 0.0 | 0.0 | 0.00 | 0.00 | 0.00 | 96 | |
| 20260509114648 | 66 | 0 | 0.0 | 0.0 | 0.00 | 0.00 | 0.00 | 96 | |
| 20260509113748 | 66 | 0 | 0.0 | 0.0 | 0.00 | 0.00 | 0.00 | 96 | |
| 20260509111948 | 66 | 0 | 0.0 | 0.0 | 0.00 | 0.00 | 0.00 | 96 | |
| 20260509111048 | 65 | 0 | 0.0 | 0.0 | 0.00 | 0.00 | 0.00 | 96 | |
| 20260509110148 | 65 | 0 | 0.0 | 0.0 | 0.00 | 0.00 | 0.00 | 96 | |
| 20260509105248 | 65 | 0 | 0.0 | 0.0 | 0.00 | 0.00 | 0.00 | 96 | |
| 20260509104348 | 65 | 0 | 0.0 | 0.0 | 0.00 | 0.00 | 0.00 | 96 | |
| 20260509103448 | 66 | 0 | 0.0 | 0.0 | 0.00 | 0.00 | 0.00 | 96 | |
| 20260509102548 | 66 | 0 | 0.0 | 0.0 | 0.00 | 0.00 | 0.00 | 96 | |
| 20260509101648 | 66 | 0 | 0.0 | 0.0 | 0.00 | 0.00 | 0.00 | 96 | |
| 20260509100748 | 66 | 0 | 0.0 | 0.0 | 0.00 | 0.00 | 0.00 | 96 | |
| 20260509094948 | 67 | 182 | 0.0 | 1.0 | 0.00 | 0.00 | 0.00 | 96 | |
| 20260509093148 | 67 | 151 | 0.0 | 1.0 | 0.00 | 0.00 | 0.00 | 96 | |
| 20260509092248 | 67 | 134 | 0.0 | 5.0 | 0.00 | 0.00 | 0.00 | 96 | |
| 20260509091348 | 68 | 131 | 1.0 | 5.0 | 0.00 | 0.00 | 0.00 | 96 | |
| 20260509085548 | 68 | 131 | 0.0 | 4.0 | 0.00 | 0.00 | 0.00 | 96 | |
| 20260509084648 | 68 | 132 | 0.0 | 4.0 | 0.00 | 0.00 | 0.00 | 96 | |
| 20260509083748 | 68 | 0 | 0.0 | 0.0 | 0.00 | 0.00 | 0.00 | 96 | |
| 20260509082848 | 68 | 0 | 0.0 | 0.0 | 0.00 | 0.00 | 0.00 | 96 | |
| 20260509081948 | 68 | 0 | 0.0 | 0.0 | 0.00 | 0.00 | 0.00 | 96 | |
| 20260509081048 | 68 | 230 | 0.0 | 4.0 | 0.00 | 0.00 | 0.00 | 96 | |
| 20260509080148 | 68 | 225 | 0.0 | 2.0 | 0.00 | 0.00 | 0.00 | 96 | |
| 20260509075248 | 68 | 190 | 0.0 | 5.0 | 0.00 | 0.00 | 0.00 | 96 | |
| 20260509074348 | 67 | 322 | 1.0 | 7.0 | 0.00 | 0.00 | 0.00 | 96 | |
| 20260509073448 | 67 | 212 | 0.0 | 2.0 | 0.00 | 0.00 | 0.00 | 96 | |
| 20260509071648 | 66 | 0 | 0.0 | 0.0 | 0.00 | 0.00 | 0.00 | 96 | |
| 20260509070748 | 67 | 0 | 0.0 | 0.0 | 0.00 | 0.00 | 0.00 | 96 | |
| 20260509065848 | 67 | 0 | 0.0 | 0.0 | 0.00 | 0.00 | 0.00 | 96 | |
| 20260509064948 | 67 | 0 | 0.0 | 0.0 | 0.00 | 0.00 | 0.00 | 96 | |
| 20260509064048 | 67 | 0 | 0.0 | 0.0 | 0.00 | 0.00 | 0.00 | 95 | |
| 20260509061348 | 67 | 0 | 0.0 | 0.0 | 0.00 | 0.00 | 0.00 | 95 |